Location: Pensacola
(30.4142°N, 87.2155°W)
Time: 04:18:10
(UTC-05:00)

CUBEBUG 2 - Visible Passes

Search period start: 05 June 2023 00:00
Search period end: 15 June 2023 00:00
Orbit: 577 x 685 km, 97.8° (Epoch: 04 June)

Date Brightness Start Highest point End Pass type
(mag) Time Alt. Az. Time Alt. Az. Time Alt. Az.
05 Jun ? 03:34:34 10° N 03:38:20 44° WNW 03:38:20 44° WNW visible
06 Jun ? 02:19:52 10° NE 02:21:58 18° ENE 02:21:58 18° ENE visible
06 Jun ? 03:55:48 10° NNW 03:59:20 25° WNW 03:59:22 25° WNW visible
07 Jun ? 02:39:55 10° NNE 02:43:00 32° ENE 02:43:00 32° ENE visible
07 Jun ? 04:17:33 10° NW 04:19:56 15° WNW 04:20:24 14° WNW visible
08 Jun ? 03:00:22 10° NNE 03:04:01 57° NE 03:04:01 57° NE visible
09 Jun ? 03:21:06 10° N 03:25:02 63° NW 03:25:02 63° NW visible
10 Jun ? 02:07:18 10° ENE 02:08:38 13° ENE 02:08:38 13° ENE visible
10 Jun ? 03:42:05 10° N 03:46:02 36° WNW 03:46:02 36° WNW visible
11 Jun ? 02:26:54 10° NE 02:29:38 24° ENE 02:29:38 24° ENE visible
11 Jun ? 04:03:25 10° NNW 04:06:42 21° WNW 04:07:02 21° WNW visible
12 Jun ? 02:47:05 10° NNE 02:50:37 42° ENE 02:50:37 42° ENE visible
12 Jun ? 04:25:30 10° NW 04:27:15 12° WNW 04:28:01 12° W visible
13 Jun ? 03:07:38 10° NNE 03:11:36 71° NNE 03:11:36 71° NNE visible
14 Jun ? 03:28:25 10° N 03:32:34 53° WNW 03:32:34 53° WNW visible
